Starlink 2418

operational
NORAD ID: 48097 Int'l Des: 2021-027 Owner: SPXS Country: US Constellation: starlink
LEOCIRCULARSTARLINK_TYPE

关于 Starlink 2418

正在加载描述...

实时位置

正在加载3D地球...

即将过境

高度历史

Altitude vs Time

uPlot chart will show altitude changes over time

两行轨道根数

1 48097U 21027F 25298.97788091 .00004618 00000-0 32873-3 0 9990
2 48097 53.0563 36.3592 0001787 91.5799 268.5394 15.06399505252394
Epoch: Oct 25, 2025 • Age: 11 hours

当前状态

高度 551.8 km
速度 7.59 km/s
星下点 49.84°N, 102.49°W
发射日期 Apr 7, 2021
运行时间 4.5 years
类型 internet

技术详情

分类 Payload
质量 260.00 kg
干质量 248.00 kg
总质量 260.00 kg
长度 0.20 m
直径 2.80 m
跨度 9.00 m
形状 Box + pan
制造商 SPXS
平台类型 Starlink
阶段状态 In Orbit
所有者/国家 SPXS/US

大型星座

Loading constellations...